Flag for France Weather past 2 weeks in Bordeaux, France

Now
39 °F

Partly cloudy.


Feels Like: 35 °F
Forecast: 37 / 46 °F
Wind: 6 mph from Southwest

Location: Bordeaux / Merignac

Current Time: Jan 31, 2015 at 7:45:12 PM

Latest Report: Jan 31, 2015 at 7:00 PM


Visibility: N/A

Pressure: 29.42 "Hg

Humidity: 93%

Dew point: 37 °F

Location of BordeauxLocation

Historic Weather in Bordeaux — Graph

°F

Bordeaux temperature yesterday

Maximum temperature yesterday: 52 °F (at 2:00 PM)
Minimum temperature yesterday: 41 °F (at 5:30 AM)
Average temperature yesterday: 45 °F

Past Weeks' High & Low Weather Summary

 TemperatureHumidityPressure
High55 °F (Jan 29, 5:30 PM)100% (Jan 17, 1:30 AM)30.60 "Hg (Jan 17, 1:30 AM)
Low27 °F (Jan 24, 3:00 AM)53% (Jan 25, 3:00 PM)29.15 "Hg (Jan 30, 11:30 PM)
Average40 °F88%30.00 "Hg
* Reported Jan 16 6:00 PM — Jan 31 6:30 PM, Bordeaux, Weather by CustomWeather, © 2014

Note: Actual official high and low records may vary slightly from our data, if they occured in-between our weather recording intervals... More about our weather records

Advertising

Bordeaux weather history for previous 24 hours

 ConditionsComfort  
Time TempWeatherWind HumidityBarometerVisibility
6:30 PM
Jan 31
39 °FPassing clouds.6 mph93%29.42 "HgN/A
6:00 PM41 °FPartly sunny.6 mph87%29.39 "HgN/A
5:30 PM41 °FLight rain. Partly sunny.7 mph87%29.39 "HgN/A
5:00 PM43 °FLight rain. Partly sunny.13 mph81%29.39 "HgN/A
4:30 PM45 °FClear.8 mph71%29.36 "HgN/A
4:00 PM45 °FClear.10 mph76%29.36 "HgN/A
3:30 PM45 °FScattered clouds.12 mph76%29.36 "HgN/A
3:00 PM43 °FPartly sunny.9 mph81%29.36 "HgN/A
2:30 PM43 °FScattered clouds.10 mph87%29.36 "HgN/A
2:00 PM43 °FRain. Fog.14 mph76%29.36 "Hg2 mi
1:30 PM45 °FScattered clouds.9 mph81%29.33 "HgN/A
1:00 PM43 °FLight rain. Broken clouds.10 mph87%29.33 "HgN/A
12:30 PM45 °FBroken clouds.8 mph81%29.33 "HgN/A
12:00 PM43 °FClear.6 mph87%29.33 "HgN/A
11:30 AM43 °FClear.6 mph87%29.30 "HgN/A
11:00 AM41 °FLight rain. Broken clouds.7 mph87%29.30 "HgN/A
10:30 AM41 °FLight rain. Broken clouds.9 mph87%29.30 "HgN/A
10:00 AM41 °FMostly cloudy.3 mph93%29.27 "HgN/A
9:30 AM39 °FPartly sunny.3 mph93%29.24 "HgN/A
9:00 AM39 °FPartly sunny.3 mph93%29.24 "HgN/A
8:30 AM39 °FLight rain. Broken clouds.8 mph93%29.24 "HgN/A
8:00 AM39 °FClear.6 mph93%29.21 "HgN/A
7:30 AM39 °FClear.6 mph93%29.21 "HgN/A
7:00 AM39 °FClear.5 mph93%29.18 "HgN/A
6:30 AM39 °FClear.5 mph93%29.18 "HgN/A
6:00 AM39 °FPassing clouds.6 mph100%29.18 "HgN/A
5:30 AM39 °FDrizzle. Overcast.5 mph100%29.18 "HgN/A
5:00 AM39 °FPassing clouds.3 mph100%29.15 "HgN/A
4:00 AM41 °FOvercast.5 mph93%29.15 "HgN/A
3:30 AM41 °FMostly cloudy.5 mph93%29.15 "HgN/A
3:00 AM41 °FOvercast.No wind93%29.15 "HgN/A
2:30 AM41 °FOvercast.1 mph93%29.15 "HgN/A
2:00 AM41 °FLight rain. Mostly cloudy.2 mph93%29.15 "HgN/A
1:30 AM41 °FOvercast.1 mph93%29.15 "HgN/A
1:00 AM43 °FPartly cloudy.7 mph87%29.15 "HgN/A
12:30 AM43 °FLight rain. Partly cloudy.3 mph93%29.15 "Hg4 mi
12:00 AM43 °FLight rain. Passing clouds.3 mph93%29.15 "HgN/A
11:30 PM
Jan 30
43 °FMostly cloudy.6 mph93%29.15 "HgN/A
11:00 PM43 °FPartly cloudy.8 mph93%29.18 "HgN/A
10:30 PM45 °FLight rain. Overcast.8 mph87%29.18 "HgN/A
10:00 PM45 °FPartly cloudy.6 mph81%29.18 "HgN/A
9:30 PM43 °FPartly cloudy.7 mph87%29.18 "HgN/A
9:00 PM43 °FClear.5 mph87%29.18 "HgN/A
8:30 PM43 °FOvercast.3 mph87%29.18 "HgN/A
8:00 PM43 °FClear.6 mph87%29.21 "HgN/A
7:30 PM43 °FClear.5 mph87%29.21 "HgN/A
7:00 PM43 °FClear.2 mph87%29.21 "HgN/A
Weather by CustomWeather, © 2014

See weather overviewHow to use our weather pages